Location: Gro�bocka
(50.8204°N, 11.9702°E)
Time: 21:38:15
(UTC+00:00)

X-37B - Pass Details

Date: 23 June 2021
Orbit: 383 x 392 km, 45.0° (Epoch: 01 July)

Event Time Altitude Azimuth Distance (km) Brightness Sun altitude
Rises 20:31:23 0° 216° (SW) 2,248 4.3 -7.5°
Reaches altitude 10° 20:34:10 10° 189° (S) 1,398 3.0 -7.8°
Maximum altitude 20:35:52 14° 156° (SSE) 1,194 2.4 -7.9°
Drops below altitude 10° 20:37:35 10° 123° (ESE) 1,401 2.8 -8.1°
Enters shadow 20:37:37 10° 122° (ESE) 1,410 2.8 -8.1°
